Asheville, NC

1:07 PM EDT on April 27, 2017 (GMT -0400)
Asheville Regional

Weather History for KAVL - November, 2012

Change the Weather History Date:

Wednesday, November 21, 2012

  Actual Average Record
Temperature  
Mean Temperature 48 °F 46 °F  
Max Temperature 64 °F 57 °F 76 °F (1994)
Min Temperature 32 °F 34 °F 11 °F (1914)
Degree Days  
Heating Degree Days 17 19  
Month to date heating degree days 394 343  
Since 1 July heating degree days 706 678  
Cooling Degree Days 0 0  
Month to date cooling degree days 0 0  
Year to date cooling degree days 1022 862  
Moisture  
Dew Point 34 °F    
Average Humidity 64    
Maximum Humidity 92    
Minimum Humidity 36    
Precipitation  
Precipitation 0.00 in 0.14 in 1.72 in (2005)
Month to date precipitation 0.85 2.43  
Year to date precipitation 40.28 40.76  
Snow  
Snow 0.00 in 0.00 in 1.20 in (1966)
Month to date snowfall 0.0 0.0  
Since 1 July snowfall 0.0 0.0  
Since 1 September snowfall 0.0 0.0  
Snow Depth 0.00 in    
Sea Level Pressure  
Sea Level Pressure 30.15 in    
Wind  
Wind Speed 6 mph (NNW)    
Max Wind Speed 18 mph    
Max Gust Speed 23 mph    
Visibility 10 miles    
Events      
T = Trace of Precipitation, MM = Missing Value Source: NWS Daily Summary

Daily Weather History Graph

Daily Weather History Graph

Search for Another Location

Airport or City:

Trip Planner

Search our weather history database for the weather conditions in past years. The results will help you decide how hot, cold, wet, or windy it might be!

Date:

Astronomy

Nov. 21, 2012 Rise Set
Actual Time 7:11 AM EST 5:20 PM EST
Civil Twilight 6:44 AM EST 5:47 PM EST
Nautical Twilight 6:13 AM EST 6:18 PM EST
Astronomical Twilight 5:42 AM EST 6:49 PM EST
Moon 1:24 PM EST (11/21) 12:42 AM EST (11/21)
Length of Visible Light 11h 03m
Length of Day
10h 08m
First Quarter, 61% of the Moon is Illuminated
Nov 21
First Quarter
Nov 28
Full
Dec 6
Last Quarter
Dec 13
New
Dec 20
First Quarter

Hourly Weather History & Observations

Time (EST) Temp. Windchill Dew Point Humidity Pressure Visibility Wind Dir Wind Speed Gust Speed Precip Events Conditions
12:54 AM 37.9 °F 34.4 °F 33.1 °F 83% 30.10 in 10.0 mi NNW 4.6 mph - N/A   Partly Cloudy
1:54 AM 37.0 °F 32.4 °F 33.1 °F 86% 30.10 in 10.0 mi NNW 5.8 mph - N/A   Overcast
2:54 AM 37.0 °F - 33.1 °F 86% 30.10 in 10.0 mi Calm Calm - N/A   Mostly Cloudy
3:54 AM 35.1 °F - 32.0 °F 89% 30.10 in 10.0 mi Calm Calm - N/A   Clear
4:54 AM 35.1 °F - 32.0 °F 89% 30.12 in 10.0 mi Calm Calm - N/A   Clear
5:54 AM 34.0 °F - 30.9 °F 89% 30.13 in 10.0 mi Calm Calm - N/A   Clear
6:54 AM 33.1 °F - 30.9 °F 92% 30.16 in 10.0 mi Calm Calm - N/A   Clear
7:54 AM 35.1 °F - 32.0 °F 89% 30.18 in 10.0 mi Calm Calm - N/A   Scattered Clouds
8:54 AM 41.0 °F - 36.0 °F 82% 30.18 in 10.0 mi Calm Calm - N/A   Partly Cloudy
9:54 AM 51.1 °F - 37.9 °F 61% 30.18 in 10.0 mi NNW 8.1 mph - N/A   Clear
10:54 AM 55.9 °F - 36.0 °F 47% 30.17 in 10.0 mi North 6.9 mph - N/A   Clear
11:54 AM 60.1 °F - 37.0 °F 42% 30.16 in 10.0 mi NNW 17.3 mph 23.0 mph N/A   Clear
12:54 PM 62.1 °F - 37.0 °F 39% 30.13 in 10.0 mi NNW 12.7 mph - N/A   Clear
1:54 PM 63.0 °F - 36.0 °F 37% 30.12 in 10.0 mi NNW 10.4 mph - N/A   Clear
2:54 PM 63.0 °F - 37.0 °F 38% 30.11 in 10.0 mi WNW 12.7 mph 17.3 mph N/A   Clear
3:54 PM 62.1 °F - 35.1 °F 37% 30.12 in 10.0 mi NW 11.5 mph - N/A   Clear
4:54 PM 59.0 °F - 33.1 °F 38% 30.13 in 10.0 mi NNW 12.7 mph - N/A   Clear
5:54 PM 53.1 °F - 34.0 °F 48% 30.16 in 10.0 mi NNW 9.2 mph - N/A   Clear
6:54 PM 52.0 °F - 35.1 °F 53% 30.18 in 10.0 mi NNW 9.2 mph - N/A   Clear
7:54 PM 52.0 °F - 35.1 °F 53% 30.19 in 10.0 mi North 5.8 mph - N/A   Clear
8:54 PM 48.9 °F - 35.1 °F 59% 30.20 in 10.0 mi NNW 4.6 mph - N/A   Clear
9:54 PM 46.0 °F - 35.1 °F 66% 30.19 in 10.0 mi Calm Calm - N/A   Clear
10:54 PM 42.1 °F 39.2 °F 34.0 °F 73% 30.19 in 10.0 mi NNW 4.6 mph - N/A   Clear
11:54 PM 39.0 °F - 34.0 °F 82% 30.19 in 10.0 mi Calm Calm - N/A   Clear